This is the latest recevied weather packets stored in our database for station/object KT2UU-13. If no packets are shown the sender has not sent any weather packets the latest 10 day(s).
| Time | Temp. | Humidity | Pressure | Rain* | Wind** | Luminosity | Snow |
|---|---|---|---|---|---|---|---|
| 1777458278 | 16.67° C | 99% | 1014.3 hPa | 0 mm | - | - | - |
| 1777457974 | 16.67° C | 99% | 1014 hPa | 0 mm | - | - | - |
| 1777457665 | 16.67° C | 99% | 1014.2 hPa | 0 mm | - | - | - |
| 1777457365 | 16.67° C | 99% | 1013.1 hPa | 0 mm | - | - | - |
| 1777457061 | 16.67° C | 99% | 1012.6 hPa | 0 mm | - | - | - |
| 1777456757 | 16.67° C | 99% | 1012.5 hPa | 1.27 mm | - | - | - |
| 1777456456 | 16.67° C | 99% | 1012.4 hPa | 1.27 mm | - | - | - |
| 1777456153 | 16.67° C | 99% | 1012.8 hPa | 0 mm | - | - | - |
| 1777455848 | 16.67° C | 99% | 1012.9 hPa | 1.78 mm | - | - | - |
| 1777455546 | 16.67° C | 99% | 1013.2 hPa | 1.78 mm | - | - | - |
| 1777455242 | 16.67° C | 99% | 1014.3 hPa | 1.27 mm | - | - | - |
| 1777454939 | 16.67° C | 99% | 1015.3 hPa | 1.27 mm | - | - | - |
| 1777454636 | 16.67° C | 99% | 1015.9 hPa | 1.78 mm | - | - | - |
| 1777454332 | 16.67° C | 99% | 1016.3 hPa | 1.78 mm | - | - | - |
| 1777454028 | 16.67° C | 99% | 1016.5 hPa | 0 mm | - | - | - |
| 1777453726 | 16.67° C | 99% | 1016.8 hPa | 1.78 mm | - | - | - |
| 1777453423 | 16.67° C | 99% | 1016.9 hPa | 1.78 mm | - | - | - |
| 1777453119 | 16.67° C | 99% | 1016.7 hPa | 0 mm | - | - | - |
| 1777452817 | 16.67° C | 99% | 1016.7 hPa | 1.27 mm | - | - | - |
| 1777452513 | 16.67° C | 99% | 1016.3 hPa | 3.05 mm | - | - | - |
| 1777452209 | 16.67° C | 99% | 1016.9 hPa | 3.05 mm | - | - | - |
| 1777451908 | 16.67° C | 99% | 1017.1 hPa | 1.27 mm | - | - | - |
| 1777451606 | 16.67° C | 99% | 1017.4 hPa | 0 mm | - | - | - |
| 1777451301 | 16.67° C | 99% | 1017.7 hPa | 1.78 mm | - | - | - |
| 1777450997 | 16.67° C | 99% | 1017.9 hPa | 3.05 mm | - | - | - |
* Rain latest hour (hover to see other rain measurements)
** Current wind speed in m/s (hover to see current wind gust speed)